TimeEDT,TemperatureF,Dew PointF,Humidity,Sea Level PressureIn,VisibilityMPH,Wind Direction,Wind SpeedMPH,Gust SpeedMPH,PrecipitationIn,Events,Conditions,WindDirDegrees,DateUTC
12:53 AM,71.1,63.0,75,29.99,10.0,Calm,Calm,-,N/A,,Clear,0,2013-08-23 04:53:00
1:53 AM,68.0,64.0,87,29.99,8.0,Calm,Calm,-,N/A,,Scattered Clouds,0,2013-08-23 05:53:00
2:34 AM,71.6,64.4,78,29.99,1.8,Variable,3.5,-,0.00,Rain,Heavy Rain,0,2013-08-23 06:34:00
2:41 AM,69.8,64.4,83,29.99,3.0,ENE,4.6,-,0.01,Rain,Light Rain,60,2013-08-23 06:41:00
2:53 AM,68.0,64.9,90,29.98,7.0,Calm,Calm,-,0.02,,Mostly Cloudy,0,2013-08-23 06:53:00
3:53 AM,68.0,66.0,93,29.97,3.0,Calm,Calm,-,0.05,,Mostly Cloudy,0,2013-08-23 07:53:00
4:53 AM,66.9,64.9,93,29.97,4.0,Calm,Calm,-,0.03,,Clear,0,2013-08-23 08:53:00
5:53 AM,66.9,64.9,93,29.98,3.0,Calm,Calm,-,0.01,,Scattered Clouds,0,2013-08-23 09:53:00
6:53 AM,68.0,66.0,93,30.00,2.0,Calm,Calm,-,0.01,,Overcast,0,2013-08-23 10:53:00
7:14 AM,68.0,66.2,94,30.01,1.8,Calm,Calm,-,N/A,,Scattered Clouds,0,2013-08-23 11:14:00
7:38 AM,68.0,66.2,94,30.02,2.0,Calm,Calm,-,N/A,,Clear,0,2013-08-23 11:38:00
7:51 AM,68.0,66.2,94,30.02,1.8,Calm,Calm,-,N/A,,Clear,0,2013-08-23 11:51:00
7:53 AM,68.0,66.0,93,30.01,2.0,Calm,Calm,-,N/A,,Partly Cloudy,0,2013-08-23 11:53:00
8:22 AM,69.8,66.2,88,30.03,3.0,Calm,Calm,-,N/A,,Partly Cloudy,0,2013-08-23 12:22:00
8:53 AM,70.0,66.0,87,30.02,4.0,Calm,Calm,-,0.01,Rain,Light Rain,0,2013-08-23 12:53:00
9:29 AM,69.8,66.2,88,30.04,2.5,SSW,4.6,-,0.00,Rain,Light Rain,200,2013-08-23 13:29:00
9:53 AM,69.1,66.9,93,30.04,1.5,South,3.5,-,0.00,Rain,Rain,190,2013-08-23 13:53:00
10:22 AM,69.8,66.2,88,30.07,2.0,Calm,Calm,-,N/A,Rain,Light Rain,0,2013-08-23 14:22:00
10:37 AM,69.8,66.2,88,30.08,1.2,Calm,Calm,-,N/A,Rain,Rain,0,2013-08-23 14:37:00
10:53 AM,69.1,66.9,93,30.08,1.2,Calm,Calm,-,N/A,Rain,Rain,0,2013-08-23 14:53:00
11:10 AM,68.0,62.6,83,30.10,3.0,Variable,6.9,-,0.09,Rain,Rain,0,2013-08-23 15:10:00
11:53 AM,64.9,60.1,84,30.09,2.5,Calm,Calm,-,0.25,Rain,Rain,0,2013-08-23 15:53:00
12:00 PM,64.4,60.8,88,30.10,4.0,North,3.5,-,0.01,Rain,Rain,10,2013-08-23 16:00:00
12:41 PM,66.2,62.6,88,30.10,5.0,North,3.5,-,0.05,Rain,Light Rain,350,2013-08-23 16:41:00
12:48 PM,66.2,62.6,88,30.10,5.0,Calm,Calm,-,0.06,Rain,Light Rain,0,2013-08-23 16:48:00
12:53 PM,66.0,62.1,87,30.09,5.0,Calm,Calm,-,0.06,Rain,Light Rain,0,2013-08-23 16:53:00
1:33 PM,68.0,64.4,88,30.09,6.0,NW,4.6,-,0.03,Rain,Light Rain,310,2013-08-23 17:33:00
1:53 PM,68.0,64.9,90,30.09,6.0,North,3.5,-,0.04,Rain,Light Rain,350,2013-08-23 17:53:00
2:53 PM,69.1,64.9,87,30.08,6.0,Calm,Calm,-,0.02,Rain,Light Rain,0,2013-08-23 18:53:00
3:53 PM,70.0,64.0,81,30.07,10.0,NNW,3.5,-,0.02,Rain,Light Rain,330,2013-08-23 19:53:00
4:53 PM,72.0,62.1,71,30.07,10.0,NW,4.6,-,0.01,,Overcast,320,2013-08-23 20:53:00
5:53 PM,73.0,60.1,64,30.07,10.0,Calm,Calm,-,0.01,,Scattered Clouds,0,2013-08-23 21:53:00
6:53 PM,73.9,60.1,62,30.06,10.0,Calm,Calm,-,0.02,,Clear,0,2013-08-23 22:53:00
7:53 PM,66.9,63.0,87,30.08,10.0,South,3.5,-,0.01,,Clear,190,2013-08-23 23:53:00
8:53 PM,66.0,62.1,87,30.11,10.0,Calm,Calm,-,N/A,,Clear,0,2013-08-24 00:53:00
9:53 PM,64.0,61.0,90,30.13,9.0,SSW,3.5,-,0.01,,Clear,200,2013-08-24 01:53:00
10:53 PM,64.0,60.1,87,30.14,10.0,Calm,Calm,-,N/A,,Partly Cloudy,0,2013-08-24 02:53:00
11:53 PM,61.0,57.9,90,30.15,3.0,Calm,Calm,-,0.01,,Clear,0,2013-08-24 03:53:00